Hourly Data Report for October 08, 2014

All times are specified in Local Standard Time (LST). Add 1 hour to adjust for Daylight Saving Time where and when it is observed.

PENTICTON A
BRITISH COLUMBIA

49°27'45.000" N
119°36'08.000" W
344.40 m
1126146
71889
YYF

Download Data

Hourly Data (October 2014)
Hourly Data Report for October 8, 2014
Temp Definition
°C
Dew Point Temp Definition
°C
Rel Hum Definition
%
Wind Dir Definition
10's deg

Wind Spd Definition
km/h
Visibility Definition
km
Stn Press Definition
kPa
Hmdx Definition


Wind Chill Definition


Weather Definition


TIME
00:00 Legend Double Dagger 13.5 9.2 75 34 19 24.1 97.04     LegendNANA
01:00 Legend Double Dagger 12.0 8.5 79 34 12 24.1 97.12     Cloudy
02:00 Legend Double Dagger 11.3 8.4 82 36 8 24.1 97.16     LegendNANA
03:00 Legend Double Dagger 11.6 8.1 79 6 7 24.1 97.19     LegendNANA
04:00 Legend Double Dagger 9.5 6.8 83 2 4 24.1 97.22     Mostly Cloudy
05:00 Legend Double Dagger 10.4 6.4 76 36 8 24.1 97.26     LegendNANA
06:00 Legend Double Dagger 11.6 6.8 72 33 12 24.1 97.33     LegendNANA
07:00 Legend Double Dagger 12.2 7.1 71 1 12 24.1 97.36     Mostly Cloudy
08:00 Legend Double Dagger 14.9 10.4 74 34 13 24.1 97.41     LegendNANA
09:00 Legend Double Dagger 15.9 10.9 72 36 18 24.1 97.45     LegendNANA
10:00 Legend Double Dagger 16.6 9.1 61 35 18 24.1 97.47     Mostly Cloudy
11:00 Legend Double Dagger 17.1 9.4 60 36 19 24.1 97.46     LegendNANA
12:00 Legend Double Dagger 17.7 8.9 56 35 21 24.1 97.46     LegendNANA
13:00 Legend Double Dagger 19.5 9.5 52 34 14 24.1 97.42     Mostly Cloudy
14:00 Legend Double Dagger 20.2 9.3 49 36 18 24.1 97.38     LegendNANA
15:00 Legend Double Dagger 20.4 10.1 51 35 16 24.1 97.39     LegendNANA
16:00 Legend Double Dagger 19.1 9.7 54 36 17 24.1 97.36     Mostly Cloudy
17:00 Legend Double Dagger 17.5 10.2 62 32 10 24.1 97.38     LegendNANA
18:00 Legend Double Dagger 16.1 10.5 69 4 8 24.1 97.41     LegendNANA
19:00 Legend Double Dagger 14.3 8.7 69 34 13 24.1 97.43     Mainly Clear
20:00 Legend Double Dagger 12.9 8.4 74 1 16 24.1 97.47     LegendNANA
21:00 Legend Double Dagger 11.7 5.8 67 35 14 24.1 97.54     LegendNANA
22:00 Legend Double Dagger 10.9 6.5 74 36 16 24.1 97.57     Mainly Clear
23:00 Legend Double Dagger 10.3 4.7 68 34 12 24.1 97.63     LegendNANA

Notes on Data Quality.

Legend

  • E = Estimated
  • M = Missing
  • NA = Not Available
  • ‡ = Partner data that is not subject to review by the National Climate Archives
Date modified: